[Iaude] MPEC S102: 2023 SU1 [a=1.45,e=0.28,i=10.8,H=25.7]
    mpec at marsden.cfa.harvard.edu 
    mpec at marsden.cfa.harvard.edu
       
    Tue Sep 19 23:04:03 EDT 2023
    
    
  
M.P.E.C. 2023-S102                           Issued 2023 September 20, 03:02 UT
     The Minor Planet Electronic Circulars contain information on unusual
         minor planets, routine data on comets and natural satellites,
         and occasional editorial announcements.  They are published
    on behalf of Division F of the International Astronomical Union by the
          Minor Planet Center, Smithsonian Astrophysical Observatory,
                          Cambridge, MA 02138, U.S.A.
			  
             Prepared using the Tamkin Foundation Computer Network
                              MPC at CFA.HARVARD.EDU
            URL https://www.minorplanetcenter.net/    ISSN 1523-6714
                                    2023 SU1                                    
Observations:
     K23S01U 1C2023 09 18.28709 00 59 14.18 +06 03 49.8          20.1 GVES102703
     K23S01U 1C2023 09 18.29762 00 59 14.21 +06 07 06.9          20.1 GVES102703
     K23S01U* C2023 09 19.43897801 00 24.307+12 01 07.98         19.87wXES102F52
     K23S01U  C2023 09 19.45020001 00 24.110+12 04 36.30         20.10wXES102F52
     K23S01U  C2023 09 19.46158601 00 23.902+12 08 07.41         20.04wXES102F52
     K23S01U  C2023 09 19.52460901 00 22.666+12 27 31.49               VES102F51
     K23S01U KB2023 09 19.86608301 00 55.82 +14 10 44.8          19.4 GVES102I93
     K23S01U KB2023 09 19.86987601 00 55.93 +14 11 54.6          19.4 GVES102I93
     K23S01U 1C2023 09 19.87008 01 00 53.95 +14 11 47.7          20.1 VXES102033
     K23S01U 1C2023 09 19.87060 01 00 53.96 +14 11 57.3          20.2 VXES102033
     K23S01U 1C2023 09 19.87111 01 00 53.97 +14 12 06.7          20.1 VXES102033
     K23S01U 1C2023 09 19.87178 01 00 54.00 +14 12 20.0          20.1 VXES102033
     K23S01U KB2023 09 19.87363401 00 56.03 +14 13 05.1          20.2 GVES102I93
     K23S01U KC2023 09 19.89938601 00 54.99 +14 21 05.8          20.4 GVES102L01
     K23S01U KC2023 09 19.90137001 00 55.04 +14 21 42.8          20.7 GVES102L01
     K23S01U KC2023 09 19.90335401 00 55.10 +14 22 19.4          19.9 GVES102L01
     K23S01U KC2023 09 19.90754201 00 55.73 +14 23 34.7          19.9 GVES102203
     K23S01U KC2023 09 19.93266201 00 56.04 +14 31 18.9          20.1 GVES102203
     K23S01U KB2023 09 20.03810501 00 57.96 +15 03 38.6          19.8 GXES102958
     K23S01U KB2023 09 20.04277701 00 57.98 +15 05 04.6          19.5 GXES102958
     K23S01U KB2023 09 20.04738701 00 58.00 +15 06 28.7                XES102958
Observer details:
033 Karl Schwarzschild Observatory, Tautenburg.  Observers S. Melnikov, C.
    Hogner, F. Ludwig, M. Hartmann, B. Stecklum.  Measurer B. Stecklum.
    1.34-m f/3 Schmidt + CCD.
203 GiaGa Observatory.  Observers S. Foglia, G. Galli.  Measurer G. Galli.
    0.36-m f/5.76 Schmidt-Cassegrain + CCD.
703 Catalina Sky Survey.  Observer K. W. Wierzchos.  Measurers B. Gray, D.
    Rankin, F. C. Shelly.  0.68-m Schmidt + 10K CCD.
958 Observatoire de Dax.  Observer P. Dupouy.  0.50-m f/4.5 Reflector + CMO.
F51 Pan-STARRS 1, Haleakala.  Observers J. Bulger, K. Chambers, T. Lowe, P.
    Minguez, A. Schultz, I. Smith.  Measurers S. Chastel, J. Fairlamb, M.
    Huber, Y. Ramanjooloo, R. Wainscoat, R. Weryk.  1.8-m Ritchey-Chretien +
    CCD.
F52 Pan-STARRS 2, Haleakala.  Observers J. Bulger, T. Lowe, P. Minguez, A.
    Schultz, I. Smith.  Measurers K. Chambers, T. de Boer, J. Bulger, J.
    Fairlamb, H. Gao, M. Huber, C.-C. Lin, T. Lowe, E. Magnier, P. Minguez, Y.
    Ramanjooloo, A. Schultz, I. Smith, R. Wainscoat, R. Weryk.  1.8-m Ritchey-
    Chretien + CCD.
I93 St Pardon de Conques.  Observer F. Losse.  0.40-m f/3.7 reflector + CMO.
L01 Visnjan Observatory, Tican.  Observer K. Korlevic.  1.0-m f/2.9 reflector
    + CCD.
Orbital elements:
2023 SU1                                                 Earth MOID = 0.0407 AU
Epoch 2023 Sept. 13.0 TT = JDT 2460200.5                Veres                   
M 351.38390              (2000.0)            P               Q                  
n   0.56650436     Peri.   10.32564     +0.99423228     -0.10633010             
a   1.4465514      Node   355.70333     +0.08014887     +0.82340592             
e   0.2795857      Incl.   10.77198     +0.07126238     +0.55740166             
P   1.74           H   25.78          G   0.15           U   8                  
Residuals in seconds of arc
230918 703  0.5-  0.5-    230919 I93  0.1+  0.5-    230919 L01  0.3-  0.3-
230918 703  0.4+  0.5+    230919 033  0.1+  0.3-    230919 L01  0.2+  0.3-
230919 F52  0.3+  0.2-    230919 033  0.0   0.3-    230919 203  0.1-  0.1+
230919 F52  0.3+  0.1-    230919 033  0.0   0.4-    230919 203  0.2+  0.4+
230919 F52  0.3+  0.0     230919 033  0.1+  0.6+    230920 958  0.0   1.7-
230919 F51  0.1-  0.1+    230919 I93  0.2-  0.2+    230920 958  0.5+  1.1-
230919 I93  0.4+  0.0     230919 L01  0.7-  0.6-    230920 958  1.0+  1.4-
Ephemeris:
2023 SU1                 a,e,i = 1.45, 0.28, 11                  q = 1.0421
Date    TT    R. A. (2000) Decl.     Delta      r    Elong.  Phase     V
2023 08 21    00 15 59.3 -56 09 15   0.1252  1.0947   128.8    46.1    23.2
...
2023 09 05    00 42 12.7 -41 29 00   0.07094 1.0622   138.0    39.5    21.7
...
2023 09 13    00 53 09.6 -18 49 06   0.04944 1.0508   153.3    25.5    20.5
...
2023 09 19    00 59 53.8 +09 45 50   0.04363 1.0453   157.7    21.4    20.1
2023 09 20    01 00 54.9 +14 53 24   0.04392 1.0447   155.5    23.5    20.2
2023 09 21    01 01 54.4 +19 53 48   0.04457 1.0441   152.7    26.1    20.3
...
2023 09 27    01 07 24.5 +44 25 10   0.05480 1.0421   135.2    42.7    21.2
...
2023 10 05    01 13 28.0 +61 57 27   0.07787 1.0438   122.1    54.2    22.3
...
2023 10 20    01 20 48.7 +73 21 59   0.1281  1.0597   116.6    57.2    23.5
M. P. C. Staff               (C) Copyright 2023 MPC           M.P.E.C. 2023-S102
    
    
More information about the Iaude
mailing list